sat.trackr.live / text

‹ back to catalog

STARLINK-31936

NORAD 59875 · 2024-098T

PAYLOAD ACTIVE UNKNOWN

§ Identity

Operator
Country
US
Launch date
2024-05-24
Launch site
AFETR
Launch vehicle
Mass (kg)
RCS (m²)

Purposes: comms

External: N2YO · Heavens-Above · Gunter

§ Orbital elements

Epoch: 2026-05-24T12:24:37.582560Z

Period
94.27 min
Inclination
43.0008°
Eccentricity
0.0001266
Mean motion
15.27579306 rev/d
Perigee alt
482.2 km
Apogee alt
483.9 km
Semi-major
6,861.2 km
B*
1.3776e-5
RAAN
177.4298°
Arg perigee
274.5534°
Mean anomaly
85.5172°
Rev number
11,380

§ Raw data

STARLINK-319361 59875U 24098T   26144.51710165  .00000117  00000+0  13776-4 0  99962 59875  43.0008 177.4298 0001266 274.5534  85.5172 15.27579306113800

JSON: /api/v1/satellites/59875 · /tle

For live sub-satellite position, see the globe view (requires WebGL).

§ Visibility from observer

Set your observer location to see the next 7 days of passes ≥ 10°. The values pass through the URL so the page stays shareable.

No JS? Fill the form by hand. The geolocation button needs JavaScript.